Location: Most
(50.5133°N, 13.6207°E)
Time: 18:36:35
(UTC+02:00)

ISS - Pass Details

Date: 15 May 2019
Orbit: 407 x 410 km, 51.6° (Epoch: 23 May)

Event Time Altitude Azimuth Distance (km) Brightness Sun altitude
Exits shadow 00:45:58 16° 82° (E) 1,156 -1.5 -20.7°
Drops below altitude 10° 00:46:47 10° 78° (ENE) 1,478 -0.9 -20.7°
Sets 00:48:54 0° 74° (ENE) 2,342 0.2 -20.7°
